DW5247 Lemo FI current weather conditions

sailwx.info

Wind from 158 at 3 knots gusting 6

Air temperature -4.4° C
Dewpoint -5.5° C

Last reported at 2014-Dec-21 16:47 UTC.
Time now 2014-Dec-21 18:02 UTC

Location: N 62°41' E 029°49'.
View on Google Maps.

See reports from other nearby stations

  
Tides and Currents Weather Stations Pressure Air Temp Water Temp Dewpoint Dewpoint Depression Visibility Wind Speed Wind Dir Waves Ship Positions
date/time (UTC)wind fromknots sea level pressurealtimeterstation pressurevisibilityair tempwater tempwave heightnotes
2014-Dec-21 16:47 158 3 gusting 6 -4.4
2014-Dec-21 16:42 158 3 gusting 6 -3.9
2014-Dec-21 16:37 158 3 gusting 6 -3.9
2014-Dec-21 16:32 158 3 gusting 6 -4.4
2014-Dec-21 16:27 158 3 gusting 6 -3.9
2014-Dec-21 16:22 158 3 gusting 6 -3.9
2014-Dec-21 16:17 158 2 gusting 6 -3.9
2014-Dec-21 16:12 158 2 gusting 6 -3.9
2014-Dec-21 16:07 158 2 gusting 6 -3.9
2014-Dec-21 16:02 158 2 gusting 4 -3.9
2014-Dec-21 15:57 158 3 gusting 6 -3.9
2014-Dec-21 15:52 158 3 gusting 6 -3.9
2014-Dec-21 15:47 158 3 gusting 6 -3.9
2014-Dec-21 15:42 158 3 gusting 6 -3.9
2014-Dec-21 15:37 158 3 gusting 6 -3.9
2014-Dec-21 15:32 158 3 gusting 6 -3.9
2014-Dec-21 15:27 158 3 gusting 6 -3.9
2014-Dec-21 15:22 158 3 gusting 6 -3.9
2014-Dec-21 15:17 158 3 gusting 6 -3.3
2014-Dec-21 15:12 158 2 gusting 6 -3.3
2014-Dec-21 15:07 158 3 gusting 8 -3.3
2014-Dec-21 15:02 158 3 gusting 8 -3.3
2014-Dec-21 14:57 158 4 gusting 8 -3.3
2014-Dec-21 14:52 158 3 gusting 6 -3.3
2014-Dec-21 14:47 158 3 gusting 6 -3.3
2014-Dec-21 14:42 158 4 gusting 6 -3.3
2014-Dec-21 14:37 158 4 gusting 5 -3.3
2014-Dec-21 14:32 158 3 gusting 5 -3.3
2014-Dec-21 14:27 158 2 gusting 5 -3.3
2014-Dec-21 14:22 158 2 gusting 5 -3.3
2014-Dec-21 14:17 158 2 gusting 5 -3.3
2014-Dec-21 14:12 158 3 gusting 6 -3.3
2014-Dec-21 14:07 158 3 gusting 6 -3.3
2014-Dec-21 14:02 158 3 gusting 6 -3.3
2014-Dec-21 13:57 158 3 gusting 5 -3.3
2014-Dec-21 13:52 158 3 gusting 7 -3.3
2014-Dec-21 13:47 158 3 gusting 7 -3.3
2014-Dec-21 13:42 158 2 gusting 7 -3.3
2014-Dec-21 13:37 158 3 gusting 6 -3.3
2014-Dec-21 13:32 158 2 gusting 6 -3.3
2014-Dec-21 13:27 158 2 gusting 6 -3.3
2014-Dec-21 13:22 158 3 gusting 6 -3.3
2014-Dec-21 13:17 158 3 gusting 4 -3.3
2014-Dec-21 13:12 158 3 gusting 4 -3.3
2014-Dec-21 13:07 158 3 gusting 7 -3.3
2014-Dec-21 13:02 158 3 gusting 7 -2.8
2014-Dec-21 12:57 158 3 gusting 7 -2.8
2014-Dec-21 12:52 158 3 gusting 6 -2.8
2014-Dec-21 12:47 158 3 gusting 6 -2.8
2014-Dec-21 12:42 158 3 gusting 6 -2.8
2014-Dec-21 12:37 158 3 gusting 6 -2.8
2014-Dec-21 12:32 158 3 gusting 6 -2.8
2014-Dec-21 12:27 158 3 gusting 5 -2.8
2014-Dec-21 12:22 158 3 gusting 6 -2.8
2014-Dec-21 12:17 158 3 gusting 6 -2.8
2014-Dec-21 12:12 158 3 gusting 6 -2.8
2014-Dec-21 12:07 158 3 gusting 6 -2.8
2014-Dec-21 12:02 158 3 gusting 6 -2.8
2014-Dec-21 11:57 158 3 gusting 5 -2.8
2014-Dec-21 11:52 158 3 gusting 6 -2.8
2014-Dec-21 11:47 158 3 gusting 9 -2.8
2014-Dec-21 11:42 158 3 gusting 9 -2.8
2014-Dec-21 11:37 158 2 gusting 9 -2.2
2014-Dec-21 11:32 158 2 gusting 6 -2.2
2014-Dec-21 11:27 158 3 gusting 5 -2.2
2014-Dec-21 11:22 158 3 gusting 5 -2.2
2014-Dec-21 11:17 158 3 gusting 5 -2.2
2014-Dec-21 11:12 158 3 gusting 4 -2.2
2014-Dec-21 11:07 158 2 gusting 5 -2.2
2014-Dec-21 11:02 158 2 gusting 5 -2.2
2014-Dec-21 10:57 158 3 gusting 9 -2.2
2014-Dec-21 10:52 158 3 gusting 9 -2.2
2014-Dec-21 10:47 158 3 gusting 9 -2.2
2014-Dec-21 10:42 158 3 gusting 8 -2.2
2014-Dec-21 10:37 158 2 gusting 6 -2.2
2014-Dec-21 10:32 158 3 gusting 6 -2.2
2014-Dec-21 10:27 158 3 gusting 7 -2.2
2014-Dec-21 10:22 158 3 gusting 7 -2.2
2014-Dec-21 10:17 113 3 gusting 4 -2.2
2014-Dec-21 10:12 113 3 gusting 5 -2.2
2014-Dec-21 10:07 113 3 gusting 5 -2.2
2014-Dec-21 10:02 113 3 gusting 6 -2.2
2014-Dec-21 09:57 113 3 gusting 6 -2.2
2014-Dec-21 09:52 113 3 gusting 6 -2.2
2014-Dec-21 09:47 113 3 gusting 6 -2.2
2014-Dec-21 09:42 113 2 gusting 4 -2.2
2014-Dec-21 09:37 113 2 gusting 4 -2.2
2014-Dec-21 09:32 113 2 gusting 4 -2.2
2014-Dec-21 09:27 113 2 gusting 4 -2.2
2014-Dec-21 09:22 113 3 gusting 5 -2.8
2014-Dec-21 09:17 113 3 gusting 5 -2.2
2014-Dec-21 09:12 113 3 gusting 5 -2.2
2014-Dec-21 09:07 113 3 gusting 4 -2.2
2014-Dec-21 09:02 113 3 gusting 4 -2.8
2014-Dec-21 08:57 113 3 gusting 4 -2.2
2014-Dec-21 08:52 113 2 gusting 5 -2.2
2014-Dec-21 08:47 113 3 gusting 6 -2.8
2014-Dec-21 08:42 113 2 gusting 6 -2.2
2014-Dec-21 08:37 113 3 gusting 5 -2.8
2014-Dec-21 08:32 113 3 gusting 5 -2.8
2014-Dec-21 08:27 113 3 gusting 7 -2.8
2014-Dec-21 08:22 113 3 gusting 7 -2.8
2014-Dec-21 08:17 113 3 gusting 5 -2.8
2014-Dec-21 08:12 113 3 gusting 4 -2.8
2014-Dec-21 08:07 113 3 gusting 3 -2.8
2014-Dec-21 08:02 113 2 gusting 6 -2.8
2014-Dec-21 07:57 113 3 gusting 6 -2.8
2014-Dec-21 07:52 113 3 gusting 6 -2.8
2014-Dec-21 07:47 113 3 gusting 5 -2.8
2014-Dec-21 07:42 113 3 gusting 7 -2.8
2014-Dec-21 07:37 113 3 gusting 7 -2.8
2014-Dec-21 07:32 113 4 gusting 8 -2.8
2014-Dec-21 07:27 113 5 gusting 8 -2.8
2014-Dec-21 07:22 113 4 gusting 8 -2.8
2014-Dec-21 07:17 113 5 gusting 8 -2.8
2014-Dec-21 07:12 113 4 gusting 3 -2.8
2014-Dec-21 07:07 113 3 gusting 5 -2.8
2014-Dec-21 07:02 113 2 gusting 5 -2.8
2014-Dec-21 06:57 113 3 gusting 6 -2.8
2014-Dec-21 06:52 113 3 gusting 10 -2.8
2014-Dec-21 06:47 113 4 gusting 10 -2.8
2014-Dec-21 06:42 113 4 gusting 10 -2.8
2014-Dec-21 06:37 113 4 gusting 8 -2.8
2014-Dec-21 06:32 113 4 gusting 8 -2.8
2014-Dec-21 06:27 113 3 gusting 6 -2.8
2014-Dec-21 06:22 113 3 gusting 6 -2.8
2014-Dec-21 06:17 113 3 gusting 6 -2.8
2014-Dec-21 06:12 113 3 gusting 6 -2.8
2014-Dec-21 06:07 113 3 gusting 6 -2.8
2014-Dec-21 06:02 113 3 gusting 6 -2.8
2014-Dec-21 05:57 113 3 gusting 6 -2.8
2014-Dec-21 05:52 113 2 gusting 6 -2.8
2014-Dec-21 05:47 113 3 gusting 6 -2.8
2014-Dec-21 05:27 113 3 gusting 6 -2.2
2014-Dec-21 05:22 113 3 gusting 5 -2.2
2014-Dec-21 05:02 113 3 gusting 7 -2.2
2014-Dec-21 04:57 113 3 gusting 8 -2.2
2014-Dec-21 04:52 113 4 gusting 8 -2.2
2014-Dec-21 04:42 113 5 gusting 8 -2.2
2014-Dec-21 04:37 113 4 gusting 8 -2.2
2014-Dec-21 04:27 113 3 gusting 6 -2.2
2014-Dec-21 04:07 113 5 gusting 11 -2.2
2014-Dec-21 04:02 113 5 gusting 7 -2.2
2014-Dec-21 03:47 113 3 gusting 5 -2.2
2014-Dec-21 03:37 113 3 gusting 5 -2.2
2014-Dec-21 03:32 113 3 gusting 4 -1.7
2014-Dec-21 03:27 113 3 gusting 8 -1.7
2014-Dec-21 03:22 113 3 gusting 8 -1.7
2014-Dec-21 03:17 113 4 gusting 8 -1.7
2014-Dec-21 03:12 113 4 gusting 8 -1.7
2014-Dec-21 03:07 113 5 gusting 6 -1.7
2014-Dec-21 03:02 113 4 gusting 8 -1.7
2014-Dec-21 02:57 113 4 gusting 8 -1.7
2014-Dec-21 02:52 113 5 gusting 8 -1.7
2014-Dec-21 02:47 113 5 gusting 6 -1.7
2014-Dec-21 02:42 113 4 gusting 6 -1.7
2014-Dec-21 02:37 113 4 gusting 9 -1.7
2014-Dec-21 02:32 113 5 gusting 9 -1.7
2014-Dec-21 02:27 113 4 gusting 9 -1.7
2014-Dec-21 02:22 113 3 gusting 5 -1.7
2014-Dec-21 02:17 113 3 gusting 5 -1.7
2014-Dec-21 02:12 113 3 gusting 5 -1.7
2014-Dec-21 02:07 113 3 gusting 6 -1.7
2014-Dec-21 02:02 113 3 gusting 7 -1.7
2014-Dec-21 01:57 113 3 gusting 7 -1.7
2014-Dec-21 01:52 113 4 gusting 7 -1.7
2014-Dec-21 01:47 113 3 gusting 6 -1.7
2014-Dec-21 01:42 113 4 gusting 6 -1.7
2014-Dec-21 01:37 113 4 gusting 6 -2.2
2014-Dec-21 01:32 113 4 gusting 6 -2.2
2014-Dec-21 01:27 113 4 gusting 6 -2.2
2014-Dec-21 01:22 113 4 gusting 4 -2.2
2014-Dec-21 01:17 113 3 gusting 7 -2.2
2014-Dec-21 01:12 113 2 gusting 7 -2.2
2014-Dec-21 01:07 113 3 gusting 7 -2.2
2014-Dec-21 01:02 113 3 gusting 6 -2.2
2014-Dec-21 00:57 113 3 gusting 6 -2.2
2014-Dec-21 00:52 113 3 gusting 6 -2.2
2014-Dec-21 00:47 113 3 gusting 6 -1.7
2014-Dec-21 00:42 113 3 gusting 6 -1.7
2014-Dec-21 00:37 113 3 gusting 6 -1.7
2014-Dec-21 00:32 113 2 gusting 6 -2.2
2014-Dec-21 00:27 113 2 gusting 6 -2.2
2014-Dec-21 00:22 113 3 gusting 5 -2.2
2014-Dec-21 00:17 113 2 gusting 6 -2.2
2014-Dec-21 00:12 113 2 gusting 6 -2.2
2014-Dec-21 00:07 113 3 gusting 6 -2.2
2014-Dec-21 00:02 113 3 gusting 8 -2.2
2014-Dec-20 23:57 113 4 gusting 8 -2.2
2014-Dec-20 23:52 113 4 gusting 5 -2.2
2014-Dec-20 23:47 113 3 gusting 6 -2.2
2014-Dec-20 23:42 113 3 gusting 6 -2.2
2014-Dec-20 23:37 113 2 gusting 6 -2.2
2014-Dec-20 23:32 113 3 gusting 5 -2.2
2014-Dec-20 23:27 113 2 gusting 5 -2.2
2014-Dec-20 23:22 113 2 gusting 5 -2.2
2014-Dec-20 23:17 113 2 gusting 3 -2.2
2014-Dec-20 23:12 113 1 gusting 5 -2.2
2014-Dec-20 23:07 113 2 gusting 5 -2.2
2014-Dec-20 23:02 113 2 gusting 5 -2.2
2014-Dec-20 22:57 113 2 gusting 4 -2.2
2014-Dec-20 22:52 113 1 gusting 4 -2.2
2014-Dec-20 22:47 113 2 gusting 3 -2.2
2014-Dec-20 22:42 113 2 gusting 3 -2.2
2014-Dec-20 22:37 113 2 gusting 7 -2.2
2014-Dec-20 22:32 113 3 gusting 7 -2.2
2014-Dec-20 22:27 113 3 gusting 6 -2.2
2014-Dec-20 22:22 113 2 gusting 5 -2.2
2014-Dec-20 22:17 113 3 gusting 3 -2.2
2014-Dec-20 22:12 113 3 gusting 4 -2.2
2014-Dec-20 22:07 113 2 gusting 5 -2.2
2014-Dec-20 21:57 113 2 gusting 3 -2.2
2014-Dec-20 21:52 113 2 gusting 6 -2.2
2014-Dec-20 21:47 113 2 gusting 6 -2.2
2014-Dec-20 21:42 113 2 gusting 6 -2.2
2014-Dec-20 21:37 113 3 gusting 6 -2.2
2014-Dec-20 21:32 113 2 gusting 6 -2.2
2014-Dec-20 21:27 113 2 gusting 4 -2.2
2014-Dec-20 21:22 113 1 gusting 5 -2.2
2014-Dec-20 21:17 113 1 gusting 5 -2.2
2014-Dec-20 21:12 113 1 gusting 5 -2.2
2014-Dec-20 21:07 113 2 gusting 5 -2.2
2014-Dec-20 21:02 113 2 gusting 5 -2.2
2014-Dec-20 20:57 113 2 gusting 5 -1.7
2014-Dec-20 20:52 113 2 gusting 4 -2.2
2014-Dec-20 20:47 113 2 gusting 5 -1.7
2014-Dec-20 20:42 113 2 gusting 5 -1.7
2014-Dec-20 20:37 113 1 gusting 5 -1.7
2014-Dec-20 20:32 113 1 gusting 5 -1.7
2014-Dec-20 20:27 113 2 gusting 5 -2.2
2014-Dec-20 20:22 113 2 gusting 5 -2.2
2014-Dec-20 20:17 113 1 gusting 3 -2.2
2014-Dec-20 20:12 113 1 gusting 3 -2.2
2014-Dec-20 20:07 113 2 gusting 4 -1.7
2014-Dec-20 20:02 113 2 gusting 4 -1.7
2014-Dec-20 19:57 113 3 gusting 4 -1.7
2014-Dec-20 19:52 113 3 gusting 5 -1.7
2014-Dec-20 19:47 113 3 gusting 5 -1.7
2014-Dec-20 19:42 113 3 gusting 5 -1.7
2014-Dec-20 19:37 113 3 gusting 4 -1.7
2014-Dec-20 19:32 113 3 gusting 3 -1.7
2014-Dec-20 19:27 113 3 gusting 5 -1.7
2014-Dec-20 19:22 113 3 gusting 5 -1.7
2014-Dec-20 19:17 113 3 gusting 5 -1.7
2014-Dec-20 19:12 113 3 gusting 6 -1.7
2014-Dec-20 19:07 113 2 gusting 6 -1.7
2014-Dec-20 19:02 113 3 gusting 4 -1.7
2014-Dec-20 18:57 113 3 gusting 4 -1.7
2014-Dec-20 18:52 113 2 gusting 6 -1.7
2014-Dec-20 18:47 113 2 gusting 6 -1.7
2014-Dec-20 18:42 113 2 gusting 6 -1.7
2014-Dec-20 18:37 113 3 gusting 7 -1.7
2014-Dec-20 18:32 113 3 gusting 7 -1.7
2014-Dec-20 18:27 113 3 gusting 7 -1.7
2014-Dec-20 18:22 113 3 gusting 8 -1.7
2014-Dec-20 18:17 113 3 gusting 8 -1.7
2014-Dec-20 18:12 113 3 gusting 8 -1.7
2014-Dec-20 18:07 113 2 gusting 8 -1.7
2014-Dec-20 18:02 113 2 gusting 8 -1.7
2014-Dec-20 17:57 113 3 gusting 4 -1.1
2014-Dec-20 17:52 113 2 gusting 4 -1.1
2014-Dec-20 17:47 113 2 gusting 5 -1.7
2014-Dec-20 17:42 113 2 gusting 5 -1.1
2014-Dec-20 17:37 113 3 gusting 6 -1.1
2014-Dec-20 17:32 113 3 gusting 6 -1.1
2014-Dec-20 17:27 113 2 gusting 6 -1.1
2014-Dec-20 17:22 113 3 gusting 8 -1.1
2014-Dec-20 17:17 113 3 gusting 8 -1.1
2014-Dec-20 17:12 113 3 gusting 8 -1.1
2014-Dec-20 17:07 113 3 gusting 7 -1.1
2014-Dec-20 17:02 113 3 gusting 7 -1.1
2014-Dec-20 16:57 113 3 gusting 7 -1.1
2014-Dec-20 16:52 113 3 gusting 3 -1.1
2014-Dec-20 16:47 113 3 gusting 9 -1.1
2014-Dec-20 16:42 113 3 gusting 9 -1.1
2014-Dec-20 16:37 113 3 gusting 9 -1.1
2014-Dec-20 16:32 113 4 gusting 6 -1.1
2014-Dec-20 16:27 113 3 gusting 6 -0.6
2014-Dec-20 16:22 113 3 gusting 5 -0.6
2014-Dec-20 16:17 113 2 gusting 3 -0.6
2014-Dec-20 16:12 113 2 gusting 3 -0.6
2014-Dec-20 16:07 113 2 gusting 6 -0.6
2014-Dec-20 16:02 113 2 gusting 7 -0.6
2014-Dec-20 15:57 113 4 gusting 7 -0.6
2014-Dec-20 15:52 113 3 gusting 7 -0.6
2014-Dec-20 15:47 113 3 gusting 6 -0.6
2014-Dec-20 15:42 113 2 gusting 3 -0.6
2014-Dec-20 15:37 113 2 gusting 4 -0.6
2014-Dec-20 15:32 113 2 gusting 5 -0.6
2014-Dec-20 15:27 113 2 gusting 6 -0.6
2014-Dec-20 15:22 113 3 gusting 6 -0.6
2014-Dec-20 15:17 113 3 gusting 6 -0.6
2014-Dec-20 15:12 113 1 gusting 4 -0.6
2014-Dec-20 15:07 113 1 gusting 5 -0.6
2014-Dec-20 15:02 113 3 gusting 5 -0.6
2014-Dec-20 14:57 113 3 gusting 7 -0.6
2014-Dec-20 14:52 113 3 gusting 7 -0.6
2014-Dec-20 14:47 113 3 gusting 7 -0.6
2014-Dec-20 14:42 113 3 gusting 8 -0.6
2014-Dec-20 14:37 113 2 gusting 8 -0.0
2014-Dec-20 14:32 113 2 gusting 8 -0.0
2014-Dec-20 14:27 113 2 gusting 8 -0.0
2014-Dec-20 14:22 113 2 gusting 8 -0.0
2014-Dec-20 14:17 113 2 gusting 4 -0.0
2014-Dec-20 14:12 113 1 gusting 4 -0.0
2014-Dec-20 14:07 113 2 gusting 3 -0.0
2014-Dec-20 14:02 113 2 gusting 2 -0.0
2014-Dec-20 13:57 113 1 gusting 2 -0.0
2014-Dec-20 13:52 113 1 gusting 2 -0.0
2014-Dec-20 13:47 113 1 gusting 3 -0.0
2014-Dec-20 13:42 113 1 gusting 3 -0.0
2014-Dec-20 13:37 113 1 gusting 5 -0.0
2014-Dec-20 13:32 113 1 gusting 5 -0.0
2014-Dec-20 13:27 113 1 gusting 5 -0.0
2014-Dec-20 13:22 113 1 gusting 4 -0.0
2014-Dec-20 13:17 113 1 gusting 4 -0.0
2014-Dec-20 13:12 113 1 gusting 3 -0.0
2014-Dec-20 13:07 113 1 gusting 3 -0.0
2014-Dec-20 13:02 113 1 gusting 3 -0.0
2014-Dec-20 12:57 113 1 gusting 2 0.6
2014-Dec-20 12:52 113 0 gusting 3 0.6
2014-Dec-20 12:47 113 1 gusting 3 0.6
2014-Dec-20 12:42 113 1 gusting 4 -0.0
2014-Dec-20 12:37 113 2 gusting 4 -0.0
2014-Dec-20 12:32 113 2 gusting 4 0.6
2014-Dec-20 12:27 113 1 gusting 3 0.6
2014-Dec-20 12:22 113 1 gusting 3 0.6
2014-Dec-20 12:17 113 1 gusting 2 0.6
2014-Dec-20 12:12 113 1 gusting 2 0.6
2014-Dec-20 12:07 113 1 gusting 3 0.6
2014-Dec-20 12:02 113 1 gusting 3 0.6
2014-Dec-20 11:57 113 1 gusting 2 0.6
2014-Dec-20 11:52 113 1 gusting 3 0.6
2014-Dec-20 11:47 113 1 gusting 3 0.6
2014-Dec-20 11:42 113 1 gusting 3 0.6
2014-Dec-20 11:37 113 1 gusting 3 0.6
2014-Dec-20 11:32 113 1 gusting 3 0.6
2014-Dec-20 11:27 113 1 gusting 3 0.6
2014-Dec-20 11:22 113 1 gusting 2 0.6
2014-Dec-20 11:17 113 1 gusting 2 0.6
2014-Dec-20 11:12 113 1 gusting 2 0.6
2014-Dec-20 11:07 113 1 gusting 3 0.6
2014-Dec-20 11:02 113 1 gusting 3 0.6
2014-Dec-20 10:57 113 1 gusting 3 0.6
2014-Dec-20 10:52 113 1 gusting 2 0.6
2014-Dec-20 10:47 113 1 gusting 2 0.6
2014-Dec-20 10:42 113 1 gusting 3 0.6
2014-Dec-20 10:37 113 1 gusting 3 0.6
2014-Dec-20 10:32 113 1 gusting 3 0.6
2014-Dec-20 10:27 113 1 gusting 4 0.6
2014-Dec-20 10:22 113 1 gusting 4 0.6
2014-Dec-20 10:17 113 2 gusting 4 0.6
2014-Dec-20 10:12 113 2 gusting 4 0.6
2014-Dec-20 10:07 113 2 gusting 4 0.6
2014-Dec-20 10:02 113 2 gusting 3 0.6
2014-Dec-20 09:57 113 1 gusting 3 0.6
2014-Dec-20 09:52 113 1 gusting 3 0.6
2014-Dec-20 09:47 113 2 gusting 3 0.6
2014-Dec-20 09:42 113 2 gusting 3 0.6
2014-Dec-20 09:37 113 2 gusting 3 0.6
2014-Dec-20 09:32 113 2 gusting 3 0.6
2014-Dec-20 09:27 113 1 gusting 3 0.6
2014-Dec-20 09:22 113 1 gusting 3 0.6
2014-Dec-20 09:17 113 0 gusting 2 0.6
2014-Dec-20 09:12 113 1 gusting 5 0.6
2014-Dec-20 09:07 113 2 gusting 5 0.6
2014-Dec-20 09:02 113 2 gusting 4 0.6
2014-Dec-20 08:57 113 2 gusting 4 0.6
2014-Dec-20 08:52 113 1 gusting 3 0.6
2014-Dec-20 08:47 113 1 gusting 3 0.6
2014-Dec-20 08:42 113 1 gusting 3 0.6
2014-Dec-20 08:37 113 2 gusting 3 0.6
2014-Dec-20 08:32 113 2 gusting 3 0.6
2014-Dec-20 08:27 113 2 gusting 2 0.6
2014-Dec-20 08:22 113 2 gusting 2 0.6
2014-Dec-20 08:17 113 1 gusting 5 0.6
2014-Dec-20 08:12 113 2 gusting 5 0.6
2014-Dec-20 08:07 113 2 gusting 4 0.6
2014-Dec-20 08:02 113 2 gusting 4 0.6
2014-Dec-20 07:57 113 2 gusting 4 0.6
2014-Dec-20 07:52 113 2 gusting 4 0.6
2014-Dec-20 07:47 113 2 gusting 3 0.6
2014-Dec-20 07:42 113 1 gusting 3 0.6
2014-Dec-20 07:37 113 2 gusting 4 0.6
2014-Dec-20 07:32 113 2 gusting 6 0.6
2014-Dec-20 07:27 113 2 gusting 6 0.6
2014-Dec-20 07:22 113 1 gusting 3 0.6
2014-Dec-20 07:17 113 1 gusting 4 0.6
2014-Dec-20 07:12 113 2 gusting 5 0.6
2014-Dec-20 07:07 113 2 gusting 5 0.6
2014-Dec-20 07:02 113 2 gusting 5 0.6
2014-Dec-20 06:57 113 2 gusting 3 0.6
2014-Dec-20 06:52 113 1 gusting 3 0.6
2014-Dec-20 06:47 113 1 gusting 3 0.6
2014-Dec-20 06:42 113 1 gusting 3 0.6
2014-Dec-20 06:37 113 1 gusting 3 0.6
2014-Dec-20 06:32 113 1 gusting 1 0.6
2014-Dec-20 06:27 113 1 gusting 3 0.6
2014-Dec-20 06:22 113 1 gusting 3 0.6
2014-Dec-20 06:17 113 1 gusting 3 0.6
2014-Dec-20 06:12 113 1 gusting 3 0.6
2014-Dec-20 06:07 113 1 gusting 3 0.6
2014-Dec-20 06:02 113 1 gusting 3 0.6
2014-Dec-20 05:57 113 1 gusting 2 0.6
2014-Dec-20 05:52 113 1 gusting 2 0.6
2014-Dec-20 05:47 113 1 gusting 3 0.6
2014-Dec-20 05:42 113 1 gusting 3 0.6
2014-Dec-20 05:37 113 1 gusting 3 0.6
2014-Dec-20 05:32 113 0 gusting 2 0.6
2014-Dec-20 05:27 113 0 gusting 2 0.6
2014-Dec-20 05:22 113 0 gusting 2 0.6
2014-Dec-20 05:17 113 0 gusting 2 0.6
2014-Dec-20 05:12 113 0 gusting 3 0.6
2014-Dec-20 05:07 113 1 gusting 3 0.6
2014-Dec-20 05:02 113 1 gusting 3 0.6
2014-Dec-20 04:57 113 0 gusting 2 0.6
2014-Dec-20 04:52 113 0 gusting 1 0.6
2014-Dec-20 04:47 113 0 gusting 1 0.6
2014-Dec-20 04:42 113 0 gusting 2 0.6
2014-Dec-20 04:37 113 1 gusting 2 0.6
2014-Dec-20 04:32 113 0 gusting 2 0.6
2014-Dec-20 04:27 113 0 gusting 2 0.6
2014-Dec-20 04:22 113 0 gusting 2 0.6
2014-Dec-20 04:17 113 0 gusting 2 0.6
2014-Dec-20 04:12 113 1 gusting 2 0.6
2014-Dec-20 04:07 113 1 gusting 2 0.6
2014-Dec-20 04:02 113 1 gusting 2 0.6
2014-Dec-20 03:57 113 0 gusting 5 0.6
2014-Dec-20 03:52 113 1 gusting 5 0.6
2014-Dec-20 03:47 090 1 gusting 5 0.6
2014-Dec-20 03:42 068 1 gusting 2 0.6
2014-Dec-20 03:37 090 0 gusting 2 0.6
2014-Dec-20 03:32 090 0 gusting 2 0.6
2014-Dec-20 03:27 113 0 gusting 2 0.6
2014-Dec-20 03:22 113 0 gusting 2 0.6
2014-Dec-20 03:17 113 0 gusting 2 0.6
2014-Dec-20 03:12 113 0 gusting 1 0.6
2014-Dec-20 03:07 113 0 gusting 2 0.6
2014-Dec-20 03:02 090 0 gusting 2 0.6
2014-Dec-20 02:57 113 0 gusting 2 0.6
2014-Dec-20 02:52 135 0 gusting 1 0.6
2014-Dec-20 02:47 113 0 gusting 1 0.6
2014-Dec-20 02:42 090 0 gusting 1 0.6
2014-Dec-20 02:37 113 0 gusting 1 0.6
2014-Dec-20 02:32 113 0 gusting 1 0.6
2014-Dec-20 02:27 113 0 gusting 1 0.6
2014-Dec-20 02:22 090 0.6
2014-Dec-20 02:17 068 0.6
2014-Dec-20 02:12 113 0 gusting 3 0.6
2014-Dec-20 02:07 090 0 gusting 1 0.6
2014-Dec-20 02:02 113 0.6
2014-Dec-20 01:57 090 0.6
2014-Dec-20 01:52 090 0.6
2014-Dec-20 01:47 090 0.6
2014-Dec-20 01:42 068 0.6
2014-Dec-20 01:37 090 0.6
2014-Dec-20 01:32 068 0.6
2014-Dec-20 01:27 090 0.6
2014-Dec-20 01:22 090 0.6
2014-Dec-20 01:17 090 0.6
2014-Dec-20 01:12 090 0.6
2014-Dec-20 01:07 090 0.6
2014-Dec-20 01:02 090 0.6
2014-Dec-20 00:57 068 0.6
2014-Dec-20 00:52 068 0.6
2014-Dec-20 00:47 068 0.6
2014-Dec-20 00:42 068 0.6
2014-Dec-20 00:37 068 0.6
2014-Dec-20 00:32 068 0.6
2014-Dec-20 00:27 068 0.6
2014-Dec-20 00:22 068 0.6
2014-Dec-20 00:17 068 0.6
2014-Dec-20 00:12 068 0.6
2014-Dec-20 00:07 068 0.6
2014-Dec-20 00:02 068 0.6
2014-Dec-19 23:57 068 0.6
2014-Dec-19 23:52 068 0.6
2014-Dec-19 23:47 068 0.6
2014-Dec-19 23:42 068 0.6
2014-Dec-19 23:37 068 0.6
2014-Dec-19 23:32 068 0.6
2014-Dec-19 23:27 068 0.6
2014-Dec-19 23:22 068 0.6
2014-Dec-19 23:17 068 0.6
2014-Dec-19 23:12 068 0.6
2014-Dec-19 23:07 068 0.6
2014-Dec-19 23:02 068 0.6
2014-Dec-19 22:57 068 0.6
2014-Dec-19 22:52 068 0.6
2014-Dec-19 22:47 068 0.6
2014-Dec-19 22:42 068 0.6
2014-Dec-19 22:37 068 0.6
2014-Dec-19 22:32 068 0.6
2014-Dec-19 22:27 068 0.6
2014-Dec-19 22:22 068 0.6
2014-Dec-19 22:17 068 0.6
2014-Dec-19 22:12 068 0.6
2014-Dec-19 22:07 068 0.6
2014-Dec-19 21:57 068 0.6
2014-Dec-19 21:52 068 0.6
2014-Dec-19 21:47 068 0.6
2014-Dec-19 21:42 068 0.6
2014-Dec-19 21:37 068 0.6
2014-Dec-19 21:32 068 0.6
2014-Dec-19 21:27 068 0.6
2014-Dec-19 21:22 068 0.6
2014-Dec-19 21:17 068 0.6
2014-Dec-19 21:12 068 0.6
2014-Dec-19 21:07 068 0.6
2014-Dec-19 21:02 068 0.6
2014-Dec-19 20:57 068 0.6
2014-Dec-19 20:52 068 0 gusting 1 0.6
2014-Dec-19 20:47 068 0.6
2014-Dec-19 20:42 068 0.6
2014-Dec-19 20:37 068 0.6
2014-Dec-19 20:32 068 0.6
2014-Dec-19 20:27 068 0.6
2014-Dec-19 20:22 068 0.6
2014-Dec-19 20:17 068 0.6
2014-Dec-19 20:12 068 0.6
2014-Dec-19 20:07 068 0.6
2014-Dec-19 20:02 068 0.6
2014-Dec-19 19:57 068 0.6
2014-Dec-19 19:52 068 0.6
2014-Dec-19 19:47 068 0.6
2014-Dec-19 19:42 068 0.6
2014-Dec-19 19:37 068 0.6
2014-Dec-19 19:32 068 0.6
2014-Dec-19 19:27 068 0.6
2014-Dec-19 19:22 068 0.6
2014-Dec-19 19:17 068 0.6
2014-Dec-19 19:12 068 0.6
2014-Dec-19 19:07 068 0.6
2014-Dec-19 19:02 068 0.6
2014-Dec-19 18:57 068 0.6
2014-Dec-19 18:52 068 0.6
2014-Dec-19 18:47 068 0.6
2014-Dec-19 18:42 068 0.6
2014-Dec-19 18:37 068 0.6
2014-Dec-19 18:32 068 0.6
2014-Dec-19 18:27 068 0.6
2014-Dec-19 18:22 068 0.6
2014-Dec-19 18:17 068 0.6
2014-Dec-19 18:12 068 0.6
2014-Dec-19 18:07 068 0.6
2014-Dec-19 18:02 068 0.6